Location: Wiler
(46.4041°N, 7.7840°E)
Time: 22:58:37
(UTC+00:00)

BREEZE M DEB (TANK) - Pass Details

Date: 09 April 2020
Orbit: 313 x 13666 km, 49.6° (Epoch: 23 May)

Event Time Altitude Azimuth Distance (km) Brightness Sun altitude
Rises 20:40:28 0° 258° (WSW) 5,553 8.4 -23.8°
Reaches altitude 10° 20:45:38 10° 262° (W) 3,200 7.1 -24.4°
Enters shadow 20:51:30 62° 325° (NW) 623 3.2 -25.1°
